This is the latest recevied weather packets stored in our database for station/object LU4EGV-13. If no packets are shown the sender has not sent any weather packets the latest 10 day(s).
| Time | Temp. | Humidity | Pressure | Rain* | Wind** | Luminosity | Snow |
|---|---|---|---|---|---|---|---|
| 1788471210 | 16.67° C | 45% | 1010.2 hPa | 0 mm | - | - | - |
| 1788470605 | 17.22° C | 43% | 1010.1 hPa | 0 mm | - | - | - |
| 1788470000 | 17.78° C | 41% | 1009.9 hPa | 0 mm | - | - | - |
| 1788469392 | 17.78° C | 40% | 1010 hPa | 0 mm | - | - | - |
| 1788468797 | 18.33° C | 41% | 1009.7 hPa | 0 mm | - | - | - |
| 1788468180 | 18.33° C | 42% | 1009.6 hPa | 0 mm | - | - | - |
| 1788467574 | 18.33° C | 39% | 1009.7 hPa | 0 mm | - | - | - |
| 1788466967 | 18.33° C | 37% | 1009.7 hPa | 0 mm | - | - | - |
| 1788466362 | 18.89° C | 41% | 1009.4 hPa | 0 mm | - | - | - |
| 1788465755 | 18.33° C | 41% | 1009.4 hPa | 0 mm | - | - | - |
| 1788465150 | 18.89° C | 42% | 1009.3 hPa | 0 mm | - | - | - |
| 1788464543 | 18.89° C | 47% | 1009.3 hPa | 0 mm | - | - | - |
| 1788463939 | 18.33° C | 48% | 1009.2 hPa | 0 mm | - | - | - |
| 1788463331 | 18.33° C | 48% | 1009.3 hPa | 0 mm | - | - | - |
| 1788462725 | 18.89° C | 47% | 1008.9 hPa | 0 mm | - | - | - |
| 1788462118 | 20° C | 50% | 1009 hPa | 0 mm | - | - | - |
| 1788461512 | 18.89° C | 52% | 1008.9 hPa | 0 mm | - | - | - |
| 1788460920 | 18.89° C | 52% | 1008.9 hPa | 0 mm | - | - | - |
| 1788460299 | 18.89° C | 53% | 1008.9 hPa | 0 mm | - | - | - |
| 1788459694 | 18.89° C | 54% | 1008.9 hPa | 0 mm | - | - | - |
| 1788459089 | 18.33° C | 52% | 1008.9 hPa | 0 mm | - | - | - |
| 1788458482 | 18.33° C | 52% | 1008.9 hPa | 0 mm | - | - | - |
| 1788457878 | 18.89° C | 55% | 1008.8 hPa | 0 mm | - | - | - |
| 1788457269 | 18.33° C | 55% | 1008.8 hPa | 0 mm | - | - | - |
| 1788456663 | 18.33° C | 54% | 1008.8 hPa | 0 mm | - | - | - |
* Rain latest hour (hover to see other rain measurements)
** Current wind speed in m/s (hover to see current wind gust speed)